User: anonymous   Login
Location: Bergen
(60.3910°N, 5.3250°E)
Time: 04:35:33
(UTC+02:00)
Language:

ISS - Orbit

View from above orbital plane
View from above orbital plane
View from above satellite
View from above satellite

Ground track
Ground track

The orbit data is extracted from the following two-line orbital elements,

1 25544U 98067A   21295.87028964  .00004816  00000-0  96258-4 0  9996
2 25544  51.6429  71.3773 0004166 133.4889   2.2702 15.48773057308382
Epoch (UTC): 22 October 2021 20:53:13
Eccentricity: 0.0004166
inclination: 51.6429°
perigee height: 417 km
apogee height: 423 km
right ascension of ascending node: 71.3773°
argument of perigee: 133.4889°
revolutions per day: 15.48773057
mean anomaly at epoch: 2.2702°
orbit number at epoch: 30838

The dashed part of the orbit path shows where the satellite is in the earth's shadow,  

DLR